Location: Niedergestelen
(46.3129°N, 7.7822°E)
Time: 14:12:54
(UTC+00:00)

FengYun 1-2 T - Pass Details

Date: 01 December 2020
Orbit: 847 x 880 km, 98.7° (Epoch: 27 January)

Event Time Altitude Azimuth Distance (km) Brightness Sun altitude
Rises 16:48:14 0° 155° (SSE) 3,422 7.3 -10.8°
Reaches altitude 10° 16:50:37 10° 152° (SSE) 2,485 6.6 -11.2°
Maximum altitude 16:56:04 66° 72° (ENE) 929 4.2 -12.0°
Drops below altitude 10° 17:01:32 10° 351° (N) 2,486 6.6 -12.9°
Sets 17:03:54 0° 349° (NNW) 3,424 7.3 -13.3°
